Regional Weather Roundup
Issued by NWS

Home | Current Version | Previous Version | Text Only | Print | Product List | Glossary On
Versions: 1 2 3 4 5 6 7 8 9 10 11 12 13 14 15 16 17 18 19 20 21 22 23 24 25 26 27 28 29 30 31 32 33 34 35 36 37 38 39 40 41 42 43 44 45 46 47 48 49 50
000
ASUS43 KLOT 261709
RWRIL

ILLINOIS REGIONAL WEATHER ROUNDUP
NATIONAL WEATHER SERVICE CHICAGO/ROMEOVILLE IL
1200 PM CDT WED JUL 26 2017

NOTE: "FAIR" INDICATES FEW OR NO CLOUDS BELOW 12,000 FEET WITH NO
SIGNIFICANT WEATHER AND/OR OBSTRUCTIONS TO VISIBILITY.

* THESE STATIONS ARE NOT UNDER NWS QUALITY CONTROL. THEY ALSO MAY NOT
  REPORT WEATHER SUCH AS PRECIPITATION OR FOG.

ILZ001-002-007-009-015-016-024-261800-
NORTHWEST ILLINOIS

CITY           SKY/WX    TMP DP  RH WIND       PRES   REMARKS
MOLINE         CLOUDY    82  74  76 S5        30.02F HX  88
STERLING*      CLOUDY    80  74  81 VRB3      30.05S HX  85
SAVANNA*       CLOUDY    79  72  80 S3        30.04S HX  82
$$

ILZ003-004-008-010-011-017-018-261800-
NORTH CENTRAL ILLINOIS

CITY           SKY/WX    TMP DP  RH WIND       PRES   REMARKS
ROCKFORD       CLOUDY    83  72  69 SW6       30.06S HX  88
FREEPORT*      CLOUDY    78  72  81 SW6       30.07S HX  80
ROCHELLE*      CLOUDY    79  73  80 SW7       30.06S HX  82
DE KALB*       CLOUDY    80  73  78 S10       30.07S HX  83
PERU*          CLOUDY    79  70  73 S5        30.06F HX  82
$$

ILZ005-006-012>014-019>023-261800-
NORTHEAST ILLINOIS

CITY           SKY/WX    TMP DP  RH WIND       PRES   REMARKS
CHICAGO-OHARE  PTSUNNY   82  68  62 S9        30.05F HX  85
CHICAGO-MIDWAY CLOUDY    82  68  62 S8        30.06F HX  85
AURORA         CLOUDY    81  71  71 S8        30.07F HX  85
LANSING*       CLOUDY    79  66  65 SW9       30.08F HX  81
JOLIET*        PTSUNNY   80  71  74 S5        30.06F HX  84
WAUKEGAN       CLOUDY    82  71  69 SW10      30.04F HX  86
DUPAGE AIRPORT CLOUDY    81  70  69 SW12      30.06S HX  84
KANKAKEE*      MOSUNNY   80  70  70 S6        30.08F HX  83
WHEELING       MOSUNNY   83  70  64 SW8       30.06F HX  87
MORRIS*        CLOUDY    79  71  77 SE6       30.05F HX  82
ROMEOVILLE*    PTSUNNY   79  67  66 S7        30.07S HX  81
NORTHERLY ISL    N/A     80  64  58 S7          N/A  HX  82
$$

LMZ740>746-261800-
SOUTHERN LAKE MICHIGAN

STATION/POSITION SKY/WX   TEMP    WIND        PRES    VSBY  WAVE
                          AIR SEA DIR/SP/G                  HT/PER
                          (F)     (DEG/KT/KT) (MB)    (MI)  (FT/S)
SOUTHERN BUOY              71 70  190/ 12/ 14 1018.0          3/ 5
WILMETTE HARBOR            73 72  150/  8/ 10   N/A           1/ 3
HARRISON CRIB              77     170/ 11/ 12   N/A
BURNHAM HARBOR             81                   N/A
CALUMET HARBOR             79     200/  5/  8 1017.7F
BURNS HARBOR               80     180/  5/ 10 1018.6F
MICHIGAN CITY              77     190/  5/  7   N/A
MICHIGAN CITY 6N           75 74  160/  4/  6   N/A           1
ST. JOSEPH                 74 73  210/  4/  4 1018.2          1/ 3
$$

ILZ025>027-034>036-040-047-049-050-058-095>099-261800-
WEST-CENTRAL ILLINOIS

CITY           SKY/WX    TMP DP  RH WIND       PRES   REMARKS
QUINCY         CLOUDY    88  74  63 W9        30.04F HX  96
GALESBURG*     CLOUDY    81  75  82 S5        30.05S HX  87
MACOMB*        CLOUDY    83  76  78 CALM      30.06S HX  91
JACKSONVILLE*  MOSUNNY   86  75  69 CALM      30.04F HX  95
PITTSFIELD*    CLOUDY    87  76  69 SW5       30.06S HX  97
$$

ILZ028>032-037-038-041>044-048-051>054-059>061-261800-
CENTRAL ILLINOIS

CITY           SKY/WX    TMP DP  RH WIND       PRES   REMARKS
PONTIAC        CLOUDY    81  75  82 S5        30.07F HX  86
BLOOMINGTON    PTSUNNY   82  73  74 S6        30.08S HX  87
DECATUR        CLOUDY    84  74  71 SE7       30.06F HX  91
PEORIA         CLOUDY    82  75  79 S8        30.04F HX  89
LACON*         PTSUNNY   81  74  78 S3        30.04S HX  86
LINCOLN*       MOSUNNY   84  77  79 S5        30.05F HX  94
SPRINGFIELD    CLOUDY    87  77  72 CALM      30.04F HX  99
TAYLORVILLE    CLOUDY    85  76  75 CALM      30.05F HX  94
$$

ILZ033-039-045-046-055>057-062-063-261800-
EAST-CENTRAL ILLINOIS

CITY           SKY/WX    TMP DP  RH WIND       PRES   REMARKS
CHAMPAIGN      CLOUDY    84  74  71 SE8       30.07F HX  91
RANTOUL*       CLOUDY    83  73  70 SE7       30.07F HX  89
MATTOON        PTSUNNY   83  75  77 SE8       30.06F HX  90
PARIS*         MOSUNNY   82  74  75 SE5       30.09F HX  88
$$

ILZ079-100>102-261800-
SOUTHWEST ILLINOIS

CITY           SKY/WX    TMP DP  RH WIND       PRES   REMARKS
ALTON          PTSUNNY   88  75  66 CALM      30.05S HX  97
BELLEVILLE     CLOUDY    90  77  65 NW6       30.05F HX 102
CAHOKIA*       CLOUDY    94  72  48 W7        30.03F HX 102
SPARTA*        SUNNY     92  75  56 SW6       30.06S HX 103
$$

ILZ064>066-069>071-074>076-080>082-084>086-088>090-092>094-261800-
SOUTH-CENTRAL ILLINOIS

CITY           SKY/WX    TMP DP  RH WIND       PRES   REMARKS
CARBONDALE     MOSUNNY   92  78  63 SW10      30.05S HX 107
CAIRO*         SUNNY     89  81  75 SW7       30.07S HX 107
EFFINGHAM*     CLOUDY    87  76  71 E6        30.06F HX  97
MARION         MOSUNNY   93  79  62 SW13      30.06F HX 110
MT. VERNON     MOSUNNY   91  78  65 S6        30.05F HX 106
CENTRALIA*     SUNNY     90  79  69 SW3       30.04F HX 105
SALEM*         SUNNY     90  76  64 W3        30.05F HX 102
METROPOLIS*    SUNNY     92  78  64 SW6       30.08S HX 107
$$

ILZ067-068-072-073-078-083-087-091-261800-
SOUTHEAST ILLINOIS

CITY           SKY/WX    TMP DP  RH WIND       PRES   REMARKS
LAWRENCEVILLE  MOSUNNY   85  75  72 SE8       30.07F HX  93
FLORA*         SUNNY     89  77  67 SW5       30.05F HX 100
FAIRFIELD*     MOSUNNY   89  78  70 S5        30.05F HX 102
HARRISBURG*    MOSUNNY   92  77  61 SW7       30.05F HX 107
ROBINSON*      MOSUNNY   83  74  73 SE3       30.09S HX  90
CARMI*         SUNNY     88  80  77 SE6       30.05F HX 104
$$

ABBREVIATIONS USED IN REMARKS
   TC - TEMPERATURE IN CELSIUS
  WCI - WIND CHILL INDEX
   HX - HEAT INDEX
  VSB - VISIBILITY
$$





USA.gov is the U.S. government's official web portal to all federal, state and local government web resources and services.